Terminal Aerodrome Forecast
Issued by NWS

Home | Current Version | Previous Version | Text Only | Print | Product List | Glossary On
Versions: 1 2 3 4 5 6 7 8 9 10 11 12 13 14 15 16 17 18 19 20
401
FTUS41 KGYX 060058 AAA
TAFAUG
TAF AMD
KAUG 060058Z 0601/0624 02014G21KT P6SM OVC021
     FM060900 36006KT 5SM -DZ BR OVC015
     FM061400 35009KT P6SM BKN035=

USA.gov is the U.S. government's official web portal to all federal, state and local government web resources and services.